Regional Weather Roundup
Issued by NWS

Home | Current Version | Previous Version | Text Only | Print | Product List | Glossary Off
Versions: 1 2 3 4 5 6 7 8 9 10 11 12 13 14 15 16 17 18 19 20 21 22 23 24 25 26 27 28 29 30 31 32 33 34 35 36 37 38 39 40 41 42 43 44 45 46 47 48 49 50

000
ASUS43 KMKX 160059
RWRWI

WISCONSIN REGIONAL WEATHER ROUNDUP
NATIONAL WEATHER SERVICE MILWAUKEE/SULLIVAN WI
700 PM CST SUN JAN 15 2017

NOTE: "FAIR" INDICATES FEW OR NO CLOUDS BELOW 12,000 FEET WITH NO
SIGNIFICANT WEATHER AND/OR OBSTRUCTIONS TO VISIBILITY.

WIZ001-002-006>008-014>016-023>028-160200-
NORTHWEST WISCONSIN

CITY           SKY/WX    TMP DP  RH WIND       PRES   REMARKS
SUPERIOR ARPT  CLOUDY    26  13  59 SW8       30.16R WCI  17
ASHLAND        CLEAR     27  11  51 SW18      30.15F WCI  14
HAYWARD        CLOUDY    19   9  65 S6        30.19S WCI  11
SIREN          CLOUDY    22  14  72 S5        30.20S WCI  15
CUMBERLAND     CLOUDY    14   7  73 S5        30.20F WCI   6
RICE LAKE      CLOUDY    15   8  72 E3        30.23F
CHETEK         CLOUDY    11   7  83 CALM      30.23F
LADYSMITH      CLOUDY    19   9  67 S3        30.24S
EAU CLAIRE     NOT AVBL
MENOMONIE      CLOUDY    11   6  79 CALM      30.25S
NEW RICHMOND   CLOUDY    21  14  75 SE6       30.22F WCI  13
OSCEOLA        CLOUDY    21  15  76 SE3       30.25S
$$

WIZ003>005-009-010-017-018-160200-
NORTH CENTRAL WISCONSIN

CITY           SKY/WX    TMP DP  RH WIND       PRES   REMARKS
MANITOWISH WTR CLOUDY    21   9  60 SW7       30.16S WCI  12
ARBOR VITAE    CLOUDY    25  11  54 SW8       30.17S WCI  16
WOODRUFF       CLOUDY    25  11  54 SW8       30.17S WCI  16
RHINELANDER    CLOUDY    20  10  65 SW7       30.19S WCI  11
EAGLE RIVER    CLOUDY    21  10  62 SW3       30.16S
LAND O LAKES   CLEAR     26  11  54 SW3       30.16S
PHILLIPS       CLOUDY    19   9  63 SW5       30.20R WCI  13
TOMAHAWK       CLOUDY    18   9  66 CALM      30.21F
MEDFORD        CLOUDY     7   4  84 S5        30.22S WCI  -1
MERRILL        CLOUDY    10   6  84 CALM        N/A
$$

WIZ029-030-035-036-043>047-160200-
CENTRAL WISCONSIN

CITY           SKY/WX    TMP DP  RH WIND       PRES   REMARKS
WAUSAU         CLOUDY    18   9  68 CALM      30.24S
MOSINEE        NOT AVBL
MARSHFIELD     CLOUDY    15   9  76 CALM      30.24S
STEVENS POINT  FOG       10   9  96 CALM      30.28S VSB 1/4
WAUPACA        CLOUDY    17  10  75 CALM      30.29S
WAUTOMA        PTCLDY    14  11  87 CALM      30.29S
WISC RAPIDS    CLOUDY    13  12  96 CALM      30.28S FOG
CAMP DOUGLAS   NOT AVBL
$$

WIZ011>013-019>022-031-037>040-048>050-160200-
NORTHEAST WISCONSIN

CITY           SKY/WX    TMP DP  RH WIND       PRES   REMARKS
ANTIGO         CLOUDY    13   8  80 CALM      30.22S
SHAWANO        CLOUDY    23  12  63 SW5       30.28S WCI  16
OCONTO         CLOUDY    20  10  63 SW5       30.27F WCI  14
STURGEON BAY   CLOUDY    18  10  71 SW8       30.27S WCI   8
GREEN BAY      CLOUDY    19  11  70 SW5       30.29S WCI  12
MANITOWOC      NOT AVBL
APPLETON       PTCLDY    16   7  67 S6        30.27S WCI   7
CLINTONVILLE   CLOUDY    14   9  79 S5        30.28F WCI   6
OSHKOSH        PTCLDY    14   8  77 CALM      30.29F
$$

WIZ032>034-041-042-053>061-160200-
SOUTHWEST WISCONSIN

CITY           SKY/WX    TMP DP  RH WIND       PRES   REMARKS
LA CROSSE      CLOUDY   N/A N/A N/A E5        30.29S
SPARTA         CLOUDY    13  12  94 CALM      30.30S
VIROQUA        CLOUDY    27  14  58 CALM      30.25S
BOSCOBEL       CLOUDY    24  16  71 CALM      30.31R
PRAIRIE DU CHI CLOUDY    25  18  74 CALM      30.30S
PLATTEVILLE    PTCLDY    28  22  78 CALM      30.30R
$$

WIZ056-057-062-063-064-067-068-160200-
SOUTH CENTRAL WISCONSIN

CITY           SKY/WX    TMP DP  RH WIND       PRES   REMARKS
REEDSBURG      CLOUDY    22  14  71 CALM      30.29R
BARABOO/DELLS  CLOUDY    20  14  75 CALM      30.28S
LONE ROCK      NOT AVBL
MINERAL POINT  CLOUDY    30  21  69 CALM      30.28R
MADISON        CLOUDY    23  16  74 CALM      30.30R
MIDDLETON      CLOUDY    25  21  85 CALM      30.30R
WATERTOWN      CLOUDY    22  17  81 CALM      30.30R
MONROE         CLOUDY    28  19  69 CALM      30.28S
JANESVILLE     CLEAR     27  21  80 CALM      30.31R
$$

WIZ051-052-058>065-066-070>072-160200-
SOUTHEAST WISCONSIN

CITY           SKY/WX    TMP DP  RH WIND       PRES   REMARKS
MILWAUKEE      CLOUDY    29  18  63 S5        30.32R WCI  24
WAUKESHA       CLEAR     23  16  74 CALM      30.32R
MILWAUKEE/TIMM CLEAR     25  16  68 CALM      30.32S
RACINE         PTCLDY    26  20  77 S3        30.33S
KENOSHA        CLOUDY    26  19  74 CALM      30.32S HAZE
FOND DU LAC    CLOUDY    10   4  76 S3        30.30S
SHEBOYGAN      PTCLDY    17   9  70 S3        30.30S
WEST BEND      CLOUDY    21  14  73 CALM      30.30S
JUNEAU         CLOUDY    23  15  71 E3        30.30S
$$

LSZ147-162-160200-
LAKE SUPERIOR

STATION/POSITION TIME  TEMP    WIND        PRES    WAVE
                       AIR SEA DIR/SP/G            HT/PER
                 (UTC) (F)     (DEG/KT/KT) (MB)    (FT/S)
DEVILS ISLAND    0000   33     220/ 15/ 19 1019.9F
PORT WING        0030   29     190/ 12/ 17 1020.3F
SAXON HARBOR     0040   31     200/ 12/ 18 1020.3S
$$

LMZ867-665-643>646-160200-
LAKE MICHIGAN

STATION/POSITION TIME  TEMP    WIND        PRES    WAVE
                       AIR SEA DIR/SP/G            HT/PER
                 (UTC) (F)     (DEG/KT/KT) (MB)    (FT/S)
NORTHPORT PIER   0040   23     200/  1/  5 1024.4R
SISTER BAY       0020   24     210/  8/ 12   N/A
KEWAUNEE LAKESHO 0030   20     240/  3/  5 1025.4R
SHEBOYGAN LAKESH 0000   29     210/  6/  7 1027.3S
PORT WASHINGTON  0040   25     270/  3/  3 1027.4S
MILWAUKEE LAKESH 0030   31     220/  1/  1   N/A
KENOSHA   LAKESH 0000   30     190/  4/  5 1026.8
$$

TC  - TEMPERATURE IN CELSIUS
VSB - VISIBILITY IN STATUTE MILES
WCI - WIND CHILL INDEX
HX  - HEAT INDEX





USA.gov is the U.S. government's official web portal to all federal, state and local government web resources and services.